Showing default

OPS 4682 (SNAPSHOT), 1314

Orbit data source: Space-Track

OPS 4682 (SNAPSHOT), 1314 is an American payload satellite in LEO that was launched on Sat, 03 Apr 1965 UTC via an ATLAS SLV-3 AGENA D launch vehicle from the Air Force Western Test Range (AFWTR). Payload-class satellites include a variety of spacecraft equipped with specific instruments for various scientific and technological missions. These include communications satellites like Starlink; space stations such as the ISS; scientific satellites like the Hubble; Earth observation satellites from companies like Planet Labs, Umbra, and HawkEye 360; GPS; miniature CubeSats for education and research; and military/defense satellites.

Loading next visibility...
Identifier
1314, 1965-027A
Orbit
LEO
Last TLE update
10 hours ago
Origin
Manufacturer
RCA/East Windsor
Mission
Defense Technology
Bus & Motor
SNAP 10 REACTOR, Unknown motor
Mass
2,386 kg wet, 422 kg dry
Launch date (UTC)
1965-04-03 (60 years ago)
Launch vehicle
ATLAS SLV-3 AGENA D
Launch site
Air Force Western Test Range (AFWTR)
Object type
Payload
Rocket body
Debris
Shape & HBR
Cone + Cyl, Unknown HBR
Radar Cross Section
14.538 m², Large (>1 m²)

Expand to show TLE details & history

TLE from 10 hours ago
0 OPS 4682 (SNAPSHOT)
1 01314U 65027A   25181.92010353 -.00000008  00000-0 -58102-4 0  9999
2 01314  90.2359 358.5857 0031757 124.9872 352.5530 12.91797066585678
Epoch: 2025-06-30T22:04Z
TLE epoch observation values (Epoch: 2025-06-30T22:04:56.944Z)
Latitude
62.59012°
Longitude
-71.42193°
Altitude
1,281.045 km
Speed
7.232 km/s
True Right ascension
11h 56m 09s
True Declination
62° 27' 32"
Sunlit
Object was in daylight at epoch
Visualization orbit readout
Latitude
-52.92194°
Longitude
108.44524°
Altitude
1,339.312 km
Speed
7.176 km/s
Apparent Right ascension
04h 07m 38s
Apparent Declination
-65° 12' 26"
Sunlit
Object is in daylight
Visualization observer readout
Local Sidereal Time
19:59:31
Azimuth
147.292° SSE
Elevation
-48.858°
Doppler factor
1
Orbital elements
Apogee altitude
1,315.892 km
Perigee altitude
1,267.179 km
Semi-major axis
7,669.672 km
Eccentricity
0.00318
Inclination
90.2359°
RAAN
358.5857°
Arg. of periapsis
124.9872°
True anomaly
Unknown
Mean anomaly
352.553°
Eccentric anomaly
Unknown
Mean motion
3.23131 °/min
Orbital period
111.41 mins
BSTAR
-0.000058102
Loading maneuver chart data...
Loading SW <> Apogee altitude chart data...
Loading historical data...
Loading historical data...
Loading historical data...
Loading historical data...
Loading historical data...
Loading historical data...
Loading historical data...

OPS 4682 (SNAPSHOT) Visibility forecast

Observer location: undefined°, undefined°

Span
Click to sort rows by Start time (UTC) header in descending order
Start Az.
Max El. time (UTC)
Max El. Az.
Max El.
End time (UTC)
End Az.
10 mins2025-07-01 10:37:25.442Z116.964° SE2025-07-01 10:42:25.442Z75.427° E20.526°2025-07-01 10:47:25.442Z29.95° NE
13 mins2025-07-01 12:27:25.442Z188.703° SSW2025-07-01 12:33:25.442Z278.247° WNW43.111°2025-07-01 12:40:25.442Z352.362° N
6 mins2025-07-01 22:18:25.442Z51.418° ENE2025-07-01 22:21:25.442Z77.008° E14.339°2025-07-01 22:24:25.442Z101.91° ESE
13 mins2025-07-02 00:07:25.442Z3.034° NNE2025-07-02 00:13:25.442Z117.482° SE44.991°2025-07-02 00:20:25.442Z183.957° SSW
7 mins2025-07-02 02:00:25.442Z318.456° NNW2025-07-02 02:03:25.442Z292.64° NW15.556°2025-07-02 02:07:25.442Z259.378° W
|